User: anonymous   Login
Location: Caltech
(34.1382°N, 118.1253°W)
Time: 10:18:58
(UTC-07:00)
Language:

PAYLOAD A - Orbit

View from above orbital plane
View from above orbital plane
View from above satellite
View from above satellite

Ground track
Ground track

The orbit data is extracted from the following two-line orbital elements,

1 27840U 03031A   16269.42961027  .00000004  00000-0  14480-4 0  9998
2 27840  98.1985 272.4994 0097903 196.5257 163.2733 14.38864108695247
Epoch (UTC): 25 September 2016 10:18:38
Eccentricity: 0.0097903
inclination: 98.1985°
perigee height: 692 km
apogee height: 832 km
right ascension of ascending node: 272.4994°
argument of perigee: 196.5257°
revolutions per day: 14.38864108
mean anomaly at epoch: 163.2733°
orbit number at epoch: 69524

The dashed part of the orbit path shows where the satellite is in the earth's shadow,  

DLR